Stigler, OK

1:18 AM CST on February 07, 2016 (GMT -0600)
Stigler

Weather History for KGZL - November, 2012

Change the Weather History Date:

Monday, November 5, 2012

  Actual Average (KFSM) Record (KFSM)
Temperature  
Mean Temperature 54 °F 56 °F  
Max Temperature 66 °F 68 °F 85 °F (1989)
Min Temperature 42 °F 44 °F 22 °F (1976)
Degree Days  
Heating Degree Days 11 10  
Month to date heating degree days 45  
Since 1 July heating degree days 199  
Growing Degree Days 4 (Base 50)    
Moisture  
Dew Point 40 °F    
Average Humidity 62    
Maximum Humidity 87    
Minimum Humidity 35    
Precipitation  
Precipitation 0.00 in 0.15 in 3.08 in (2006)
Month to date precipitation 0.74  
Year to date precipitation 38.47  
Sea Level Pressure  
Sea Level Pressure 30.06 in    
Wind  
Wind Speed 6 mph (North)    
Max Wind Speed 20 mph    
Max Gust Speed 28 mph    
Visibility 10 miles    
Events      
T = Trace of Precipitation, MM = Missing Value Source: NWS Daily Summary

Daily Weather History Graph

Daily Weather History Graph

Search for Another Location

Airport or City:

Trip Planner

Search our weather history database for the weather conditions in past years. The results will help you decide how hot, cold, wet, or windy it might be!

Date:

Astronomy

Nov. 05, 2012 Rise Set
Actual Time 6:46 AM CST 5:21 PM CST
Civil Twilight 6:19 AM CST 5:47 PM CST
Nautical Twilight 5:49 AM CST 6:18 PM CST
Astronomical Twilight 5:19 AM CST 6:47 PM CST
Moon 10:59 PM CST (11/5) 12:05 PM CST (11/5)
Length of Visible Light 11h 28m
Length of Day
10h 35m
Waning Gibbous, 62% of the Moon is Illuminated
Nov 5
Waning Gibbous
Nov 6
Last Quarter
Nov 13
New
Nov 20
First Quarter
Nov 28
Full

Hourly Weather History & Observations

Time (CST) Temp. Windchill Dew Point Humidity Pressure Visibility Wind Dir Wind Speed Gust Speed Precip Events Conditions
12:15 AM 50.0 °F - 41.0 °F 71% 30.08 in 10.0 mi ESE 3.5 mph - N/A   Overcast
12:35 AM 48.2 °F - 41.0 °F 76% 30.08 in 10.0 mi ENE 3.5 mph - N/A   Overcast
12:55 AM 50.0 °F - 41.0 °F 71% 30.08 in 9.0 mi Calm Calm - N/A   Overcast
1:15 AM 50.0 °F - 41.0 °F 71% 30.09 in 10.0 mi East 4.6 mph - N/A   Overcast
1:35 AM 51.8 °F - 41.0 °F 67% 30.08 in 10.0 mi ESE 4.6 mph - N/A   Overcast
1:55 AM 51.8 °F - 41.0 °F 67% 30.07 in 10.0 mi SE 4.6 mph - N/A   Overcast
2:15 AM 50.0 °F - 42.8 °F 76% 30.08 in 10.0 mi Calm Calm - N/A   Mostly Cloudy
2:35 AM 50.0 °F - 42.8 °F 76% 30.07 in 10.0 mi Calm Calm - N/A   Mostly Cloudy
2:55 AM 50.0 °F - 42.8 °F 76% 30.07 in 10.0 mi Calm Calm - N/A   Partly Cloudy
3:15 AM 48.2 °F - 44.6 °F 87% 30.07 in 10.0 mi Calm Calm - N/A   Partly Cloudy
3:35 AM 50.0 °F - 44.6 °F 82% 30.06 in 10.0 mi Calm Calm - N/A   Partly Cloudy
3:55 AM 50.0 °F - 44.6 °F 82% 30.06 in 10.0 mi Calm Calm - N/A   Partly Cloudy
4:15 AM 50.0 °F - 44.6 °F 82% 30.06 in 10.0 mi ESE 4.6 mph - N/A   Scattered Clouds
4:35 AM 50.0 °F - 44.6 °F 82% 30.06 in 10.0 mi Calm Calm - N/A   Scattered Clouds
4:55 AM 50.0 °F - 44.6 °F 82% 30.04 in 10.0 mi ESE 6.9 mph - N/A   Partly Cloudy
5:15 AM 50.0 °F - 44.6 °F 82% 30.04 in 10.0 mi Calm Calm - N/A   Partly Cloudy
5:35 AM 50.0 °F - 44.6 °F 82% 30.03 in 10.0 mi ESE 4.6 mph - N/A   Scattered Clouds
5:55 AM 50.0 °F - 44.6 °F 82% 30.03 in 6.0 mi Calm Calm - N/A   Haze
6:15 AM 48.2 °F - 42.8 °F 82% 30.03 in 10.0 mi Calm Calm - N/A   Mostly Cloudy
6:35 AM 48.2 °F - 44.6 °F 87% 30.03 in 9.0 mi Calm Calm - N/A   Overcast
6:55 AM 48.2 °F - 44.6 °F 87% 30.03 in 5.0 mi Calm Calm - N/A   Haze
7:15 AM 48.2 °F - 44.6 °F 87% 30.04 in 8.0 mi Calm Calm - N/A   Overcast
7:35 AM 50.0 °F - 44.6 °F 82% 30.04 in 9.0 mi Calm Calm - N/A   Mostly Cloudy
7:55 AM 51.8 °F - 44.6 °F 76% 30.05 in 8.0 mi Calm Calm - N/A   Clear
8:15 AM 53.6 °F - 44.6 °F 72% 30.05 in 8.0 mi Calm Calm - N/A   Clear
8:55 AM 57.2 °F - 48.2 °F 72% 30.05 in 5.0 mi West 5.8 mph - N/A   Haze
9:15 AM 59.0 °F - 48.2 °F 67% 30.05 in 8.0 mi WNW 5.8 mph - N/A   Partly Cloudy
9:35 AM 59.0 °F - 46.4 °F 63% 30.05 in 9.0 mi NW 11.5 mph - N/A   Clear
9:55 AM 62.6 °F - 42.8 °F 48% 30.05 in 10.0 mi NNW 11.5 mph 17.3 mph N/A   Clear
10:15 AM 62.6 °F - 41.0 °F 45% 30.05 in 10.0 mi North 11.5 mph 18.4 mph N/A   Clear
10:35 AM 64.4 °F - 41.0 °F 42% 30.05 in 10.0 mi NNW 12.7 mph 21.9 mph N/A   Clear
10:55 AM 64.4 °F - 41.0 °F 42% 30.04 in 9.0 mi North 11.5 mph 18.4 mph N/A   Clear
11:15 AM 66.2 °F - 39.2 °F 37% 30.04 in 10.0 mi NNW 11.5 mph 19.6 mph N/A   Clear
11:35 AM 64.4 °F - 39.2 °F 40% 30.04 in 9.0 mi North 13.8 mph 23.0 mph N/A   Clear
11:55 AM 66.2 °F - 39.2 °F 37% 30.03 in 10.0 mi NW 13.8 mph 23.0 mph N/A   Clear
12:15 PM 66.2 °F - 39.2 °F 37% 30.02 in 10.0 mi NW 17.3 mph 24.2 mph N/A   Scattered Clouds
12:35 PM 64.4 °F - 37.4 °F 37% 30.02 in 10.0 mi NNW 18.4 mph 25.3 mph N/A   Mostly Cloudy
12:55 PM 64.4 °F - 37.4 °F 37% 30.01 in 10.0 mi NNW 17.3 mph 27.6 mph N/A   Scattered Clouds
1:15 PM 64.4 °F - 37.4 °F 37% 30.00 in 10.0 mi NNW 18.4 mph 21.9 mph N/A   Mostly Cloudy
1:35 PM 64.4 °F - 37.4 °F 37% 30.00 in 10.0 mi NNW 13.8 mph 24.2 mph N/A   Mostly Cloudy
1:55 PM 64.4 °F - 37.4 °F 37% 30.00 in 10.0 mi NNW 15.0 mph 21.9 mph N/A   Scattered Clouds
2:15 PM 66.2 °F - 37.4 °F 35% 29.99 in 10.0 mi NNW 12.7 mph 23.0 mph N/A   Partly Cloudy
2:35 PM 64.4 °F - 37.4 °F 37% 30.00 in 10.0 mi North 16.1 mph 24.2 mph N/A   Partly Cloudy
2:55 PM 64.4 °F - 37.4 °F 37% 30.01 in 10.0 mi North 17.3 mph 26.5 mph N/A   Partly Cloudy
3:15 PM 62.6 °F - 37.4 °F 39% 30.02 in 10.0 mi North 15.0 mph 25.3 mph N/A   Clear
3:35 PM 60.8 °F - 37.4 °F 42% 30.02 in 10.0 mi North 18.4 mph 24.2 mph N/A   Clear
3:55 PM 59.0 °F - 37.4 °F 45% 30.03 in 10.0 mi North 19.6 mph 26.5 mph N/A   Clear
4:15 PM 57.2 °F - 37.4 °F 48% 30.04 in 9.0 mi North 16.1 mph 25.3 mph N/A   Clear
4:35 PM 57.2 °F - 35.6 °F 44% 30.04 in 10.0 mi North 18.4 mph 25.3 mph N/A   Clear
4:55 PM 55.4 °F - 35.6 °F 47% 30.05 in 10.0 mi North 12.7 mph 21.9 mph N/A   Clear
5:15 PM 53.6 °F - 37.4 °F 54% 30.06 in 10.0 mi North 15.0 mph 20.7 mph N/A   Clear
5:35 PM 53.6 °F - 35.6 °F 51% 30.07 in 10.0 mi North 10.4 mph 16.1 mph N/A   Scattered Clouds
5:55 PM 53.6 °F - 35.6 °F 51% 30.08 in 10.0 mi North 10.4 mph - N/A   Overcast
6:15 PM 53.6 °F - 35.6 °F 51% 30.09 in 10.0 mi North 10.4 mph - N/A   Overcast
6:35 PM 53.6 °F - 35.6 °F 51% 30.09 in 10.0 mi North 8.1 mph - N/A   Overcast
6:55 PM 53.6 °F - 35.6 °F 51% 30.09 in 10.0 mi North 6.9 mph - N/A   Overcast
7:15 PM 53.6 °F - 35.6 °F 51% 30.09 in 10.0 mi North 11.5 mph 17.3 mph N/A   Overcast
7:35 PM 53.6 °F - 35.6 °F 51% 30.10 in 10.0 mi North 11.5 mph 16.1 mph N/A   Overcast
7:55 PM 51.8 °F - 35.6 °F 54% 30.10 in 10.0 mi North 8.1 mph - N/A   Mostly Cloudy
8:15 PM 50.0 °F - 35.6 °F 58% 30.10 in 10.0 mi North 9.2 mph - N/A   Partly Cloudy
8:35 PM 48.2 °F - 35.6 °F 62% 30.10 in 10.0 mi North 6.9 mph - N/A   Clear
8:55 PM 46.4 °F 44.3 °F 35.6 °F 66% 30.11 in 10.0 mi NNE 4.6 mph - N/A   Clear
9:15 PM 46.4 °F 43.5 °F 35.6 °F 66% 30.11 in 10.0 mi North 5.8 mph - N/A   Clear
9:35 PM 44.6 °F 41.4 °F 35.6 °F 71% 30.11 in 10.0 mi NNW 5.8 mph - N/A   Clear
9:55 PM 44.6 °F 41.4 °F 35.6 °F 71% 30.11 in 10.0 mi NNW 5.8 mph - N/A   Clear
10:15 PM 44.6 °F 42.2 °F 35.6 °F 71% 30.11 in 10.0 mi NNW 4.6 mph - N/A   Clear
10:35 PM 42.8 °F 40.1 °F 35.6 °F 76% 30.11 in 10.0 mi NW 4.6 mph - N/A   Partly Cloudy
10:55 PM 44.6 °F 42.2 °F 37.4 °F 76% 30.11 in 10.0 mi NNW 4.6 mph - N/A   Scattered Clouds
11:15 PM 42.8 °F 40.1 °F 37.4 °F 81% 30.11 in 10.0 mi North 4.6 mph - N/A   Partly Cloudy
11:35 PM 42.8 °F 40.1 °F 35.6 °F 76% 30.11 in 10.0 mi NNE 4.6 mph - N/A   Clear
11:55 PM 42.8 °F - 37.4 °F 81% 30.11 in 10.0 mi Calm Calm - N/A   Partly Cloudy